Paso Robles, CA

4:22 AM PST on December 06, 2016 (GMT -0800)
Paso Robles Municipal

Weather History for KPRB - July, 2013

Change the Weather History Date:

Friday, July 12, 2013

  Actual Average Record
Temperature  
Mean Temperature 70 °F 73 °F  
Max Temperature 91 °F 93 °F 109 °F (1990)
Min Temperature 48 °F 54 °F 46 °F (1952)
Degree Days  
Heating Degree Days 0 0  
Month to date heating degree days 0 0  
Since 1 June heating degree days 5 27  
Since 1 July heating degree days 0 0  
Cooling Degree Days 5 9  
Month to date cooling degree days 143 94  
Year to date cooling degree days 498 305  
Since 1 June cooling degree days 368 237  
Growing Degree Days 18 (Base 50)    
Moisture  
Dew Point 48 °F    
Average Humidity 58    
Maximum Humidity 89    
Minimum Humidity 27    
Precipitation  
Precipitation 0.00 in 0.00 in 0.30 in (1969)
Month to date precipitation T 0.00  
Year to date precipitation 1.46 8.79  
Since 1 July precipitation T  
Sea Level Pressure  
Sea Level Pressure 29.90 in    
Wind  
Wind Speed 6 mph (SW)    
Max Wind Speed 17 mph    
Max Gust Speed 93 mph    
Visibility 10 miles    
Events      
T = Trace of Precipitation, MM = Missing Value Source: NWS Daily Summary

Daily Weather History Graph

Daily Weather History Graph

Search for Another Location

Airport or City:

Trip Planner

Search our weather history database for the weather conditions in past years. The results will help you decide how hot, cold, wet, or windy it might be!

Date:

Astronomy

Jul. 12, 2013 Rise Set
Actual Time 5:56 AM PDT 8:19 PM PDT
Civil Twilight 5:27 AM PDT 8:49 PM PDT
Nautical Twilight 4:50 AM PDT 9:25 PM PDT
Astronomical Twilight 4:10 AM PDT 10:04 PM PDT
Moon 10:07 AM PDT (7/12) 10:44 PM PDT (7/12)
Length of Visible Light 15h 22m
Length of Day
14h 23m
Waxing Crescent, 18% of the Moon is Illuminated
Jul 12
Waxing Crescent
Jul 15
First Quarter
Jul 22
Full
Jul 29
Last Quarter
Aug 6
New

Hourly Weather History & Observations

Time (PDT) Temp. Heat Index Dew Point Humidity Pressure Visibility Wind Dir Wind Speed Gust Speed Precip Events Conditions
12:53 AM 57.0 °F - 48.0 °F 72% 29.93 in 10.0 mi Calm Calm - N/A   Clear
1:53 AM 54.0 °F - 48.0 °F 80% 29.92 in 10.0 mi Calm Calm - N/A   Clear
2:53 AM 53.1 °F - 48.0 °F 83% 29.92 in 10.0 mi Calm Calm - N/A   Clear
3:53 AM 52.0 °F - 48.0 °F 86% 29.93 in 10.0 mi Calm Calm - N/A   Clear
4:53 AM 50.0 °F - 45.0 °F 83% 29.93 in 10.0 mi Calm Calm - N/A   Clear
5:53 AM 48.0 °F - 45.0 °F 89% 29.94 in 9.0 mi Calm Calm - N/A   Clear
6:37 AM 48.2 °F - 46.4 °F 93% 29.95 in 7.0 mi Calm Calm - N/A   Partly Cloudy
6:53 AM 50.0 °F - 46.0 °F 86% 29.94 in 10.0 mi Calm Calm - N/A   Scattered Clouds
7:53 AM 54.0 °F - 48.9 °F 83% 29.94 in 10.0 mi Calm Calm - N/A   Clear
8:53 AM 60.1 °F - 50.0 °F 69% 29.94 in 10.0 mi Calm Calm - N/A   Clear
9:53 AM 68.0 °F - 51.1 °F 55% 29.93 in 10.0 mi Calm Calm - N/A   Clear
10:53 AM 77.0 °F - 53.1 °F 43% 29.92 in 10.0 mi Calm Calm - N/A   Clear
11:53 AM 84.0 °F 82.5 °F 53.1 °F 34% 29.90 in 10.0 mi Calm Calm - N/A   Clear
12:53 PM 88.0 °F 85.7 °F 53.1 °F 30% 29.88 in 10.0 mi SSW 11.5 mph - N/A   Clear
1:53 PM 88.0 °F 85.7 °F 53.1 °F 30% 29.87 in 10.0 mi SSW 15.0 mph 21.9 mph N/A   Clear
2:53 PM 89.1 °F - 51.1 °F 27% 29.86 in 10.0 mi South 17.3 mph - N/A   Clear
3:53 PM 89.1 °F - 51.1 °F 27% 29.85 in 10.0 mi SSW 17.3 mph - N/A   Clear
4:53 PM 88.0 °F - 50.0 °F 27% 29.83 in 10.0 mi South 17.3 mph - N/A   Clear
5:53 PM 84.9 °F - 46.0 °F 26% 29.83 in 10.0 mi SSW 17.3 mph - N/A   Clear
6:53 PM 80.1 °F - 45.0 °F 29% 29.84 in 10.0 mi SSW 16.1 mph - N/A   Clear
7:53 PM 75.9 °F - 43.0 °F 31% 29.85 in 10.0 mi SSW 13.8 mph - N/A   Clear
8:53 PM 71.1 °F - 46.9 °F 42% 29.88 in 10.0 mi SSW 8.1 mph - N/A   Clear
9:13 PM 69.8 °F - 48.2 °F 46% 29.90 in 10.0 mi SSW 8.1 mph 93.2 mph N/A   Squalls
9:53 PM 68.0 °F - 46.0 °F 45% 29.90 in 10.0 mi WSW 9.2 mph - N/A   Clear
10:53 PM 66.0 °F - 45.0 °F 47% 29.91 in 10.0 mi NW 6.9 mph - N/A   Clear
11:53 PM 61.0 °F - 46.0 °F 58% 29.91 in 10.0 mi West 3.5 mph - N/A   Clear